Regional Weather Roundup
Issued by NWS

Home | Current Version | Previous Version | Text Only | Print | Product List | Glossary Off
Versions: 1 2 3 4 5 6 7 8 9 10 11 12 13 14 15 16 17 18 19 20 21 22 23 24 25 26 27 28 29 30 31 32 33 34 35 36 37 38 39 40 41 42 43 44 45 46 47 48 49 50

322
ASUS44 KJAN 261710
RWRMS

MISSISSIPPI HOURLY WEATHER ROUNDUP
NATIONAL WEATHER SERVICE JACKSON MS
1100 AM CST THU FEB 26 2015

NOTE: "FAIR: INDICATES FEW OR NO CLOUDS BELOW 12,000 FEET WITH NO
SIGNIFICANT WEATHER AND/OR OBSTRUCTIONS TO VISIBILITY.

MSZ001>002-007>008-010>013-018>021-025>028-034>036-261800-
NORTHWEST MISSISSIPPI

CITY           SKY/WX    TMP DP  RH WIND       PRES   REMARKS
CLARKSDALE     CLOUDY    30  30 100 W7        30.17R WCI  23
CLEVELAND      CLOUDY    31  31 100 NW7       30.17R WCI  24
GREENWOOD        N/A    N/A N/A N/A MISG      30.15R
GREENVILLE     CLOUDY    33  30  88 NW7       30.16R FOG     WCI  27
OLIVE BRANCH   PTSUNNY   32  32 100 W6        30.11R FOG     WCI  26
OXFORD         CLOUDY    32  28  86 W5        30.13R WCI  27
TUNICA         CLOUDY    32  32 100 NW5       30.16R FOG     WCI  27
$$

MSZ003>006-009-014>017-022>024-029>033-037>039-261800-
NORTHEAST MISSISSIPPI

CITY           SKY/WX    TMP DP  RH WIND       PRES   REMARKS
COLUMBUS AFB   CLOUDY    32  29  87 NW8       30.11R WCI  25
CORINTH        FAIR      37  28  70 VRB6      30.06S WCI  33
GOLDN TRIANGLE PTSUNNY   34  28  80 NW5       30.10R WCI  30
STARKVILLE     PTSUNNY   34  32  93 CALM      30.11R
TUPELO         CLOUDY    34  28  79 VRB6      30.10R WCI  29
$$

MSZ040-058-261800-
CENTRAL MISSISSIPPI

CITY           SKY/WX    TMP DP  RH WIND       PRES   REMARKS
JACKSON INTL   PTSUNNY   39  30  70 NW8       30.13R WCI  33
JACKSON HAWKNS MOSUNNY   40  31  70 NW6       30.13S
MERIDIAN KEY   CLOUDY    39  33  79 N10       30.10R WCI  32
MERIDIAN NAS   CLOUDY    38  31  76 N9        30.10R WCI  31
VICKSBURG      CLOUDY    37  31  78 N5        30.17R WCI  33
$$

MSZ059>079-261800-
SOUTH MISSISSIPPI

CITY           SKY/WX    TMP DP  RH WIND       PRES   REMARKS
BROOKHAVEN     CLOUDY    36  34  93 NW10      30.13R WCI  28
HATTIESBURG    CLOUDY    39  33  79 N12       30.10R WCI  32
MCCOMB         CLOUDY    37  32  82 N14       30.12R WCI  28
NATCHEZ        CLOUDY    37  34  87 NW7       30.16R WCI  32
PINE BELT      CLOUDY    37  30  75 NW12      30.10R WCI  30
$$

MSZ080>082-261800-
COASTAL MISSISSIPPI

CITY           SKY/WX    TMP DP  RH WIND       PRES   REMARKS
BAY ST LOUIS   PTSUNNY   43  32  65 N13G18    30.09R
BILOXI         CLOUDY    43  36  75 N10       30.06R
PASCAGOULA     CLOUDY    43  35  73 N10       30.06S
GULFPORT       CLOUDY    44  35  70 N14       30.07R
$$



USA.gov is the U.S. government's official web portal to all federal, state and local government web resources and services.